This demonstration page uses our WeatherBlox Daily Observations layout. Learn more.

Left ArrowRight Arrow

44.8408, -93.29828

Hourly Observations for December 4, 2017

Temp ( °F °C ) Dew Point ( °F °C ) Humidity (%) Winds ( mph kmh ) Pressure ( in mb ) Visibility ( mi km ) Precip ( " mm )
12:53 am 00:53 Cloudy 51 10.6 42 5.6 71 71 SE 10 17 29.62 1003 10 16 0.00 0.00
1:53 am 01:53 Cloudy 51 10.6 42 5.6 71 71 SE 10 17 29.57 1002 10 16 0.00 0.00
2:53 am 02:53 Cloudy 51 10.6 43 6.1 74 74 SE 10 17 29.56 1001 10 16 0.00 0.00
3:39 am 03:39 Cloudy 53 11.7 45 7.2 74 74 SSE 9 15 29.53 1000 10 16 0.00 0.00
3:53 am 03:53 Cloudy 53 11.7 45 7.2 74 74 SSE 6 9 29.52 1000 10 16 0.00 0.00
4:31 am 04:31 Cloudy 53 11.7 46 7.8 77 77 SSE 7 11 29.50 999 10 16 0.00 0.00
4:53 am 04:53 Cloudy 53 11.7 46 7.8 77 77 SE 7 11 29.48 998 10 16 0.00 0.00
5:53 am 05:53 Cloudy 53 11.7 47 8.3 80 80 SE 5 7 29.46 998 10 16 0.00 0.00
6:53 am 06:53 Cloudy 53 11.7 47 8.3 80 80 ESE 7 11 29.44 997 9 14 0.00 0.00
7:13 am 07:13 Cloudy 55 12.8 48 8.9 77 77 SE 5 7 29.44 997 9 14 0.00 0.00
7:53 am 07:53 Cloudy with Light Rain 53 11.7 49 9.4 86 86 ESE 9 15 29.41 996 6 10 0.00 0.03
8:53 am 08:53 Cloudy 53 11.7 50 10 89 89 VRB 6 9 29.39 995 8 13 0.00 0.03
9:53 am 09:53 Cloudy 54 12.2 51 10.6 90 90 ESE 6 9 29.37 995 8 13 0.00 0.03
10:53 am 10:53 Cloudy 55 12.8 52 11.1 90 90 SSE 5 7 29.34 994 8 13 0.00 0.03
11:53 am 11:53 Cloudy with Light Rain 57 13.9 53 11.7 87 87 SSE 5 7 29.30 992 9 14 0.01 0.25
12:53 pm 12:53 Cloudy with Light Rain 56 13.3 55 12.8 97 97 SSW 3 6 29.28 992 7 11 0.02 0.51
1:25 pm 13:25 Cloudy 57 13.9 56 13.3 96 96 VRB 6 9 29.26 991 8 13 0.00 0.03
1:46 pm 13:46 Cloudy 56 13.3 55 12.8 97 97 WSW 10 17 29.26 991 8 13 0.00 0.03
1:53 pm 13:53 Cloudy 57 13.9 55 12.8 93 93 WSW 7 11 29.25 991 8 13 0.00 0.03
1:57 pm 13:57 Cloudy 57 13.9 55 12.8 93 93 WSW 7 11 29.26 991 8 13 0.00 0.00
2:32 pm 14:32 Cloudy 57 13.9 54 12.2 90 90 WSW 7 11 29.26 991 8 13 0.00 0.00
2:40 pm 14:40 Cloudy 56 13.3 54 12.2 93 93 W 8 13 29.26 991 8 13 0.00 0.00
2:53 pm 14:53 Cloudy 56 13.3 54 12.2 93 93 WSW 8 13 29.26 991 8 13 0.00 0.00
3:26 pm 15:26 Cloudy 56 13.3 53 11.7 90 90 SW 10 17 29.26 991 8 13 0.00 0.00
3:44 pm 15:44 Cloudy 55 12.8 52 11.1 90 90 W 13 20 29.26 991 8 13 0.00 0.00
3:53 pm 15:53 Cloudy 54 12.2 52 11.1 93 93 W 10 17 29.26 991 8 13 0.00 0.00
4:53 pm 16:53 Cloudy 49 9.4 46 7.8 90 90 W 17 28 29.30 992 7 11 0.00 0.00
5:50 pm 17:50 Cloudy with Drizzle 43 6 43 6 100 100 W 12 19 29.35 994 3 5 0.00 0.03
5:53 pm 17:53 Cloudy with Drizzle 43 6.1 42 5.6 97 97 W 15 24 29.31 993 3 5 0.00 0.03
6:46 pm 18:46 Cloudy with Rain 40 4.4 39 3.9 97 97 W 15 24 29.38 995 3 4 0.03 0.76
6:53 pm 18:53 Cloudy with Light Rain 40 4.4 39 3.9 97 97 W 15 24 29.36 994 4 6 0.04 1.02
7:23 pm 19:23 Cloudy with Rain 38 3.3 38 3.3 100 100 WNW 20 31 29.38 995 4 6 0.10 2.54
7:41 pm 19:41 Cloudy with Light Rain 37 2.8 36 2.2 96 96 NW 17 28 29.38 995 6 10 0.15 3.81
7:53 pm 19:53 Cloudy with Light Rain 37 2.8 36 2.2 96 96 WNW 14 22 29.36 994 10 16 0.15 3.81
8:01 pm 20:01 Cloudy 37 2.8 36 2.2 96 96 NW 18 30 29.38 995 10 16 0.00 0.03
8:53 pm 20:53 Cloudy with Light Snow 34 1.1 34 1.1 100 100 WNW 12 19 29.35 994 3 5 0.01 0.25
9:07 pm 21:07 Cloudy with Light Snow 34 1.1 33 0.6 97 97 WNW 15 24 29.41 996 2 3 0.01 0.25
9:23 pm 21:23 Windy with Snow Likely 33 0.6 33 0.6 100 100 WNW 20 31 29.41 996 1 2 0.01 0.25
9:34 pm 21:34 Windy with Snow Likely 32 0 31 -0.6 96 96 WNW 22 35 29.41 996 1 2 0.03 0.76
9:53 pm 21:53 Windy with Snow Likely 31 -0.6 30 -1.1 96 96 WNW 20 31 29.43 997 1 2 0.04 1.02
10:04 pm 22:04 Mostly Cloudy with Snow 30 -1.1 29 -1.7 96 96 WNW 21 33 29.50 999 1 1 0.01 0.25
10:53 pm 22:53 Mostly Cloudy with Snow 28 -2.2 27 -2.8 96 96 WNW 25 41 29.50 999 1 1 0.05 1.27
11:53 pm 23:53 Mostly Cloudy with Light Snow 27 -2.8 26 -3.3 96 96 WNW 24 39 29.55 1001 1 1 0.05 1.27

Powered by AerisWeather